Home > Weather > Salt Lake City > Past weeks

Flag for USA Weather for the Past 2 Weeks in Salt Lake City, Utah, USA

Now
70 °F

Thunderstorms. Partly sunny.


Feels Like: 70 °F
Forecast: 57 / 75 °F
Wind: 3 mph from West

Location: Salt Lake City International Airport

Current Time: May 6, 2016 at 1:37:16 PM

Latest Report: May 6, 2016 at 1:04 PM


Visibility: 10 mi

Pressure: 29.75 "Hg (25.54 "Hg at 1312m altitude)

Humidity: 38%

Dew Point: 43 °F

Location of Salt Lake CityLocation

Historic Weather in Salt Lake City — Graph

°F

Salt Lake City Temperature Yesterday

Maximum temperature yesterday: 83 °F (at 2:54 PM)
Minimum temperature yesterday: 64 °F (at 6:54 AM)
Average temperature yesterday: 73 °F

High & Low Weather Summary for the Past Weeks

 TemperatureHumidityPressure
High83 °F (May 5, 2:54 PM)90% (Apr 28, 6:54 AM)30.16 "Hg (Apr 28, 6:54 AM)
Low43 °F (Apr 29, 5:54 AM)9% (Apr 22, 1:54 PM)29.43 "Hg (Apr 23, 3:54 AM)
Average58 °F46%29.80 "Hg
* Reported Apr 21 11:54 AM — May 6 11:54 AM, Salt Lake City, Weather by CustomWeather, © 2016

Note: Actual official high and low records may vary slightly from our data, if they occured in-between our weather recording intervals... More about our weather records

Advertising

Salt Lake City Weather History for the Previous 24 Hours

Scroll right to see more
 ConditionsComfort  
Time TempWeatherWind HumidityBarometerVisibility
11:54 AM
Fri, May 6
70 °FLight rain. Broken clouds.23 mph37%29.64 "Hg10 mi
10:54 AM72 °FPartly sunny.20 mph33%29.64 "Hg10 mi
9:54 AM67 °FBroken clouds.17 mph41%29.67 "Hg10 mi
8:54 AM64 °FBroken clouds.18 mph41%29.68 "Hg10 mi
7:54 AM63 °FPartly sunny.23 mph47%29.70 "Hg10 mi
6:54 AM68 °FPassing clouds.24 mph33%29.63 "Hg10 mi
5:54 AM68 °FPartly cloudy.10 mph33%29.62 "Hg10 mi
4:54 AM70 °FMostly cloudy.17 mph29%29.62 "Hg10 mi
3:54 AM71 °FPassing clouds.12 mph28%29.61 "Hg10 mi
2:54 AM68 °FPassing clouds.8 mph33%29.62 "Hg10 mi
1:54 AM67 °FPassing clouds.6 mph35%29.62 "Hg10 mi
12:54 AM71 °FPassing clouds.7 mph28%29.62 "Hg10 mi
11:54 PM
Thu, May 5
70 °FPartly cloudy.7 mph30%29.64 "Hg10 mi
10:54 PM69 °FPartly cloudy.5 mph33%29.64 "Hg10 mi
9:54 PM70 °FPartly cloudy.No wind37%29.62 "Hg10 mi
8:54 PM75 °FPartly sunny.5 mph23%29.61 "Hg10 mi
7:54 PM79 °FBroken clouds.10 mph16%29.60 "Hg10 mi
6:54 PM82 °FCloudy.21 mph13%29.60 "Hg10 mi
5:54 PM82 °FCloudy.16 mph14%29.61 "Hg10 mi
4:54 PM83 °FMore clouds than sun.17 mph14%29.63 "Hg10 mi
3:54 PM83 °FMore clouds than sun.20 mph14%29.66 "Hg10 mi
2:54 PM83 °FBroken clouds.20 mph14%29.68 "Hg10 mi
1:54 PM82 °FBroken clouds.8 mph16%29.69 "Hg10 mi
Weather by CustomWeather, © 2016

See weather overviewHow to use our weather pages